Location: Newark
(46.7636°N, 1.8358°W)
Time: 10:42:57
(UTC+00:00)

Vanguard 2 Rocket - Pass Details

Date: 16 October 2019
Orbit: 554 x 3326 km, 32.9° (Epoch: 17 November)

Event Time Altitude Azimuth Distance (km) Brightness Sun altitude
Rises 14:17:29 0° 267° (W) 7,290 12.1 25.7°
Reaches altitude 10° 14:23:00 10° 262° (W) 6,138 12.0 25.1°
Maximum altitude 14:39:26 42° 201° (SSW) 3,270 11.1 23.1°
Drops below altitude 10° 14:50:19 10° 136° (SE) 4,121 10.3 21.8°
Sets 14:53:14 0° 129° (SE) 4,780 10.5 21.4°
